FW4132 Weather Reports


Display with metric or nautical units.
time (UTC)temp
F
wind
direction
speed
MPH
gust
MPH
rain 1hr
in
rain 24hr
in
rain mn
in
humidity
%
barometer
mb
20260901003116 67 119 2.0 7.0 0.00 0.00 0.00 47 1017.1
20260901003009 67 119 1.0 7.0 0.00 0.00 0.00 46 1015.6
20260901002616 67 123 1.0 7.0 0.00 0.00 0.00 45 1017.2
20260901002504 67 145 1.0 7.0 0.00 0.00 0.00 44 1015.7
20260901002112 67 107 1.0 4.0 0.00 0.00 0.00 46 1017.1
20260901002008 67 126 0.0 4.0 0.00 0.00 0.00 45 1015.7
20260901001611 67 116 2.0 4.0 0.00 0.00 0.00 48 1017.1
20260901001512 67 116 0.0 4.0 0.00 0.00 0.00 48 1015.7
20260901001112 67 119 2.0 6.0 0.00 0.00 0.00 45 1017.2
20260901001010 67 96 0.0 7.0 0.00 0.00 0.00 46 1015.7
20260901000612 67 119 2.0 10.0 0.00 0.00 0.00 47 1017.2
20260901000510 67 128 1.0 10.0 0.00 0.00 0.00 44 1015.7
20260901000112 67 111 3.0 10.0 0.00 0.00 0.00 45 1017.3
20260901000008 67 109 4.0 10.0 0.00 0.00 0.00 44 1015.8
20260831235611 68 126 2.0 9.0 0.00 0.00 0.00 45 1017.3
20260831235504 67 122 4.0 9.0 0.00 0.00 0.00 46 1015.9
20260831235335 68 177 3.0 7.0 0.00 0.00 0.00 47 1017.4
20260831235003 67 100 3.0 10.0 0.00 0.00 0.00 45 1015.9
20260831234837 68 101 3.0 10.0 0.00 0.00 0.00 44 1017.4
20260831234506 67 103 2.0 10.0 0.00 0.00 0.00 44 1015.9
20260831234341 68 109 2.0 10.0 0.00 0.00 0.00 44 1017.4
20260831234003 67 72 2.0 6.0 0.00 0.00 0.00 44 1016.0
20260831233604 68 78 3.0 12.0 0.00 0.00 0.00 44 1017.5
20260831233504 67 150 1.0 12.0 0.00 0.00 0.00 44 1016.0
20260831233057 68 108 3.0 12.0 0.00 0.00 0.00 44 1017.4
20260831233008 67 104 2.0 12.0 0.00 0.00 0.00 45 1016.0
20260831232813 68 124 2.0 8.0 0.00 0.00 0.00 44 1017.5
20260831232503 68 124 3.0 8.0 0.00 0.00 0.00 43 1016.0
20260831232003 67 114 0.0 8.0 0.00 0.00 0.00 44 1016.0
20260831231545 68 94 2.0 6.0 0.00 0.00 0.00 44 1017.5
20260831231513 67 94 2.0 6.0 0.00 0.00 0.00 43 1016.1
20260831231043 68 115 1.0 7.0 0.00 0.00 0.00 44 1017.6
20260831231005 67 115 0.0 7.0 0.00 0.00 0.00 42 1016.1
20260831230544 68 111 2.0 7.0 0.00 0.00 0.00 46 1017.7
20260831230503 67 111 0.0 9.0 0.00 0.00 0.00 45 1016.2
20260831230044 68 109 2.0 9.0 0.00 0.00 0.00 46 1017.9
20260831230018 67 110 2.0 9.0 0.00 0.00 0.00 46 1016.2
20260831225541 68 110 2.0 9.0 0.00 0.00 0.00 46 1017.9
20260831225509 68 111 2.0 9.0 0.00 0.00 0.00 45 1016.2
20260831225042 68 117 2.0 4.0 0.00 0.00 0.00 46 1017.9
20260831225011 68 111 1.0 4.0 0.00 0.00 0.00 45 1016.3
20260831224541 68 107 2.0 7.0 0.00 0.00 0.00 45 1017.9
20260831224509 68 118 0.0 7.0 0.00 0.00 0.00 44 1016.3
20260831224042 68 111 2.0 7.0 0.00 0.00 0.00 47 1018.1
20260831224008 68 113 3.0 7.0 0.00 0.00 0.00 46 1016.4
20260831223541 68 105 1.0 6.0 0.00 0.00 0.00 46 1018.0
20260831223512 68 107 0.0 6.0 0.00 0.00 0.00 45 1016.5
20260831223039 68 109 1.0 4.0 0.00 0.00 0.00 43 1018.1
20260831223007 68 103 0.0 4.0 0.00 0.00 0.00 43 1016.6
20260831222538 68 109 3.0 9.0 0.00 0.00 0.00 45 1018.1
20260831222504 68 109 2.0 10.0 0.00 0.00 0.00 44 1016.6
20260831222035 68 125 4.0 10.0 0.00 0.00 0.00 43 1018.2
20260831222004 68 125 3.0 10.0 0.00 0.00 0.00 43 1016.6
20260831221533 69 103 4.0 11.0 0.00 0.00 0.00 47 1018.2
20260831221510 68 109 6.0 11.0 0.00 0.00 0.00 46 1016.7
20260831221034 69 124 4.0 11.0 0.00 0.00 0.00 43 1018.2
20260831221003 68 124 1.0 11.0 0.00 0.00 0.00 42 1016.8
20260831220505 69 142 4.0 13.0 0.00 0.00 0.00 43 1016.8
20260831220031 69 105 4.0 13.0 0.00 0.00 0.00 43 1018.2
20260831220015 69 103 2.0 13.0 0.00 0.00 0.00 43 1016.8
20260831215531 70 96 4.0 13.0 0.00 0.00 0.00 43 1018.3
20260831215511 69 111 2.0 13.0 0.00 0.00 0.00 43 1016.8
20260831215024 69 111 4.0 10.0 0.00 0.00 0.00 44 1018.4
20260831215004 69 111 3.0 10.0 0.00 0.00 0.00 43 1016.9
20260831214519 69 76 3.0 10.0 0.00 0.00 0.00 43 1018.3
20260831214013 69 106 3.0 11.0 0.00 0.00 0.00 45 1018.3
20260831214011 69 106 1.0 11.0 0.00 0.00 0.00 45 1016.9
20260831213507 69 103 3.0 11.0 0.00 0.00 0.00 42 1018.4
20260831213505 69 103 5.0 11.0 0.00 0.00 0.00 41 1017.1
20260831213017 69 107 2.0 8.0 0.00 0.00 0.00 44 1017.2
20260831213002 69 105 3.0 8.0 0.00 0.00 0.00 44 1018.5
20260831212513 68 105 3.0 13.0 0.00 0.00 0.00 42 1017.3
20260831212455 69 101 4.0 13.0 0.00 0.00 0.00 43 1018.7
20260831212014 68 104 7.0 13.0 0.00 0.00 0.00 42 1017.4
20260831211949 69 112 4.0 13.0 0.00 0.00 0.00 43 1018.5
20260831211512 68 114 4.0 12.0 0.00 0.00 0.00 44 1017.4
20260831211443 68 102 3.0 12.0 0.00 0.00 0.00 45 1018.7
20260831211003 68 109 1.0 8.0 0.00 0.00 0.00 43 1017.5
20260831210937 68 111 2.0 8.0 0.00 0.00 0.00 41 1018.8
20260831210652 69 105 2.0 8.0 0.00 0.00 0.00 45 1018.8
20260831210510 68 116 1.0 8.0 0.00 0.00 0.00 44 1017.6
20260831210008 69 326 1.0 6.0 0.00 0.00 0.00 40 1017.6
20260831205925 69 326 2.0 6.0 0.00 0.00 0.00 42 1018.8
20260831205508 69 128 2.0 10.0 0.00 0.00 0.00 41 1017.7
20260831205419 69 93 3.0 10.0 0.00 0.00 0.00 41 1018.9
20260831205138 69 115 4.0 10.0 0.00 0.00 0.00 43 1018.9
20260831205007 68 98 4.0 10.0 0.00 0.00 0.00 44 1017.6
20260831204519 68 113 4.0 10.0 0.00 0.00 0.00 44 1017.8
20260831204407 69 116 4.0 10.0 0.00 0.00 0.00 43 1019.0
20260831204007 68 97 3.0 13.0 0.00 0.00 0.00 43 1017.8
20260831203901 69 108 4.0 13.0 0.00 0.00 0.00 44 1019.0
20260831203510 68 117 3.0 13.0 0.00 0.00 0.00 44 1017.9
20260831203355 69 107 4.0 13.0 0.00 0.00 0.00 43 1019.1
20260831203023 68 103 2.0 10.0 0.00 0.00 0.00 44 1017.9
20260831202849 69 103 3.0 10.0 0.00 0.00 0.00 43 1019.3
20260831202511 68 103 1.0 10.0 0.00 0.00 0.00 42 1017.9
20260831202343 69 29 4.0 10.0 0.00 0.00 0.00 46 1019.3
20260831202007 68 109 2.0 10.0 0.00 0.00 0.00 44 1017.9
20260831201837 68 107 3.0 10.0 0.00 0.00 0.00 45 1019.5
20260831201526 68 108 3.0 10.0 0.00 0.00 0.00 45 1018.0
20260831201331 68 94 3.0 10.0 0.00 0.00 0.00 44 1019.5
20260831201014 68 201 1.0 12.0 0.00 0.00 0.00 41 1018.0
20260831200825 68 128 5.0 12.0 0.00 0.00 0.00 48 1019.5
20260831200513 68 61 2.0 17.0 0.00 0.00 0.00 47 1017.9
20260831200319 68 110 5.0 17.0 0.00 0.00 0.00 46 1019.5
20260831200027 67 111 5.0 17.0 0.00 0.00 0.00 46 1018.0
20260831195813 68 103 6.0 17.0 0.00 0.00 0.00 45 1019.5
20260831195503 67 88 1.0 13.0 0.00 0.00 0.00 47 1018.0
20260831195307 67 98 6.0 13.0 0.00 0.00 0.00 50 1019.5
20260831195003 67 82 8.0 13.0 0.00 0.00 0.00 46 1018.0
20260831194801 67 105 5.0 13.0 0.00 0.00 0.00 45 1019.6
20260831194515 67 93 6.0 13.0 0.00 0.00 0.00 47 1018.1
20260831194254 67 84 5.0 13.0 0.00 0.00 0.00 47 1019.6
20260831194010 67 155 4.0 10.0 0.00 0.00 0.00 46 1019.6
20260831194008 67 130 3.0 10.0 0.00 0.00 0.00 48 1018.1
20260831193507 67 244 4.0 10.0 0.00 0.00 0.00 45 1018.3
20260831193243 67 116 4.0 9.0 0.00 0.00 0.00 47 1019.6
20260831193014 66 134 4.0 9.0 0.00 0.00 0.00 48 1018.3
20260831192737 66 117 2.0 8.0 0.00 0.00 0.00 47 1019.6
20260831192515 65 111 1.0 7.0 0.00 0.00 0.00 47 1018.4
20260831192231 65 181 2.0 6.0 0.00 0.00 0.00 46 1019.8
20260831192011 65 230 1.0 6.0 0.00 0.00 0.00 44 1018.4
20260831191725 66 288 2.0 6.0 0.00 0.00 0.00 45 1019.8
20260831191541 66 269 1.0 6.0 0.00 0.00 0.00 44 1018.5
20260831191443 66 117 3.0 7.0 0.00 0.00 0.00 46 1019.8
20260831191008 66 116 2.0 9.0 0.00 0.00 0.00 45 1018.5
20260831190713 66 152 5.0 13.0 0.00 0.00 0.00 46 1019.8
20260831190513 66 254 2.0 13.0 0.00 0.00 0.00 45 1018.5
20260831190207 66 113 5.0 13.0 0.00 0.00 0.00 49 1019.8
20260831190030 66 114 8.0 13.0 0.00 0.00 0.00 50 1018.5
20260831185701 66 108 6.0 13.0 0.00 0.00 0.00 49 1019.8
20260831185514 66 111 6.0 13.0 0.00 0.00 0.00 48 1018.5
20260831185155 66 108 6.0 13.0 0.00 0.00 0.00 47 1019.8
20260831185009 65 122 8.0 13.0 0.00 0.00 0.00 47 1018.5
20260831184649 66 102 4.0 13.0 0.00 0.00 0.00 49 1019.8
20260831184530 65 94 4.0 13.0 0.00 0.00 0.00 49 1018.6
20260831184409 65 101 4.0 9.0 0.00 0.00 0.00 50 1019.9
20260831184019 65 121 4.0 9.0 0.00 0.00 0.00 49 1018.6
20260831183637 65 104 3.0 9.0 0.00 0.00 0.00 50 1019.9
20260831183512 64 125 4.0 9.0 0.00 0.00 0.00 50 1018.7
20260831183131 65 233 3.0 9.0 0.00 0.00 0.00 47 1019.9
20260831183019 65 145 2.0 10.0 0.00 0.00 0.00 49 1018.6
20260831182625 66 226 4.0 10.0 0.00 0.00 0.00 49 1020.0
20260831182513 65 118 5.0 10.0 0.00 0.00 0.00 48 1018.6
20260831182119 65 105 4.0 10.0 0.00 0.00 0.00 50 1019.9
20260831182010 65 94 4.0 11.0 0.00 0.00 0.00 50 1018.7
20260831181613 65 121 4.0 11.0 0.00 0.00 0.00 47 1019.9
20260831181523 65 102 4.0 11.0 0.00 0.00 0.00 47 1018.7
20260831181107 65 115 3.0 11.0 0.00 0.00 0.00 47 1019.9
20260831181011 64 96 4.0 10.0 0.00 0.00 0.00 49 1018.7
20260831180601 64 106 3.0 10.0 0.00 0.00 0.00 49 1019.9
20260831180513 64 102 3.0 11.0 0.00 0.00 0.00 49 1018.7
20260831180055 64 87 4.0 11.0 0.00 0.00 0.00 48 1019.9
20260831180019 63 126 2.0 11.0 0.00 0.00 0.00 49 1018.7
20260831175549 64 108 3.0 10.0 0.00 0.00 0.00 50 1019.9
20260831175511 63 148 4.0 10.0 0.00 0.00 0.00 50 1018.7
20260831175307 63 137 4.0 10.0 0.00 0.00 0.00 47 1019.9
20260831175018 63 129 4.0 10.0 0.00 0.00 0.00 47 1018.7
20260831174537 63 107 3.0 10.0 0.00 0.00 0.00 48 1019.9
20260831174532 63 174 4.0 10.0 0.00 0.00 0.00 47 1018.7
20260831174257 63 122 3.0 9.0 0.00 0.00 0.00 49 1020.0
20260831174011 63 109 1.0 9.0 0.00 0.00 0.00 48 1018.7
20260831173525 63 120 3.0 10.0 0.00 0.00 0.00 48 1020.0
20260831173511 62 119 2.0 10.0 0.00 0.00 0.00 48 1018.6
20260831173033 62 121 2.0 10.0 0.00 0.00 0.00 50 1018.6
20260831173019 63 121 3.0 10.0 0.00 0.00 0.00 50 1020.1
20260831172513 62 105 3.0 8.0 0.00 0.00 0.00 51 1020.1
20260831172502 62 105 2.0 8.0 0.00 0.00 0.00 50 1018.6
20260831172229 62 121 3.0 8.0 0.00 0.00 0.00 54 1020.3
20260831172006 61 121 3.0 8.0 0.00 0.00 0.00 54 1018.7
20260831171510 61 244 1.0 8.0 0.00 0.00 0.00 51 1018.7
20260831171501 61 244 3.0 8.0 0.00 0.00 0.00 51 1020.1
20260831171002 61 110 1.0 13.0 0.00 0.00 0.00 52 1018.7
20260831170955 61 103 4.0 13.0 0.00 0.00 0.00 52 1020.1
20260831170707 61 95 4.0 13.0 0.00 0.00 0.00 54 1020.1
20260831170502 60 108 7.0 13.0 0.00 0.00 0.00 53 1018.6
20260831170003 60 107 3.0 7.0 0.00 0.00 0.00 51 1018.6
20260831165943 60 113 2.0 7.0 0.00 0.00 0.00 52 1020.1
20260831165655 60 109 2.0 6.0 0.00 0.00 0.00 54 1020.1
20260831165503 60 143 3.0 6.0 0.00 0.00 0.00 54 1018.6
20260831165001 60 104 0.0 9.0 0.00 0.00 0.00 54 1018.6
20260831164931 60 103 3.0 9.0 0.00 0.00 0.00 55 1020.0
20260831164502 59 102 4.0 9.0 0.00 0.00 0.00 53 1018.6
20260831164427 60 92 3.0 9.0 0.00 0.00 0.00 54 1020.1
20260831164004 59 103 1.0 10.0 0.00 0.00 0.00 54 1018.6
20260831163927 59 107 3.0 10.0 0.00 0.00 0.00 55 1020.1
20260831163506 58 106 2.0 10.0 0.00 0.00 0.00 54 1018.6
20260831163427 59 219 3.0 10.0 0.00 0.00 0.00 54 1020.1
20260831163004 58 106 2.0 6.0 0.00 0.00 0.00 55 1018.7
20260831162927 58 171 2.0 6.0 0.00 0.00 0.00 56 1020.1
20260831162504 57 126 1.0 7.0 0.00 0.00 0.00 56 1018.7
20260831162425 58 122 2.0 7.0 0.00 0.00 0.00 54 1020.0
20260831162004 57 101 3.0 7.0 0.00 0.00 0.00 58 1018.7
20260831161925 57 120 3.0 7.0 0.00 0.00 0.00 60 1020.0
20260831161504 56 101 2.0 7.0 0.00 0.00 0.00 58 1018.7
20260831161425 57 113 3.0 7.0 0.00 0.00 0.00 57 1020.1
20260831161001 56 136 3.0 7.0 0.00 0.00 0.00 62 1018.7
20260831160925 56 105 2.0 7.0 0.00 0.00 0.00 62 1020.0
20260831160503 55 226 1.0 8.0 0.00 0.00 0.00 60 1018.7
20260831160425 56 248 2.0 8.0 0.00 0.00 0.00 60 1020.1
20260831160007 55 115 2.0 8.0 0.00 0.00 0.00 63 1018.7
20260831155924 55 117 3.0 8.0 0.00 0.00 0.00 64 1020.1
20260831155503 54 240 1.0 7.0 0.00 0.00 0.00 63 1018.7
20260831155003 53 121 1.0 8.0 0.00 0.00 0.00 69 1018.7
20260831154921 53 135 2.0 8.0 0.00 0.00 0.00 71 1020.0
20260831154517 51 119 2.0 8.0 0.00 0.00 0.00 73 1018.7
20260831154421 51 111 2.0 8.0 0.00 0.00 0.00 74 1019.9
20260831154004 50 100 1.0 6.0 0.00 0.00 0.00 79 1018.7
20260831153920 50 100 1.0 6.0 0.00 0.00 0.00 79 1019.9
20260831153506 48 179 0.0 2.0 0.00 0.00 0.00 90 1018.7
20260831153420 48 148 0.0 2.0 0.00 0.00 0.00 96 1019.9
20260831153010 46 112 0.0 6.0 0.00 0.00 0.00 96 1018.6
20260831152921 46 112 1.0 6.0 0.00 0.00 0.00 96 1019.9
20260831152503 45 114 1.0 6.0 0.00 0.00 0.00 96 1018.5
20260831152420 46 114 1.0 6.0 0.00 0.00 0.00 96 1019.8
20260831152005 45 105 1.0 6.0 0.00 0.00 0.00 96 1018.5
20260831151921 45 111 1.0 6.0 0.00 0.00 0.00 96 1019.9
20260831151505 43 113 0.0 6.0 0.00 0.00 0.00 96 1018.5
20260831151420 44 112 1.0 6.0 0.00 0.00 0.00 96 1019.9
20260831151003 42 103 1.0 4.0 0.00 0.00 0.00 95 1018.5
20260831150921 42 103 0.0 3.0 0.00 0.00 0.00 96 1019.9
20260831150511 41 104 0.0 1.0 0.00 0.00 0.00 95 1018.5
20260831150421 42 104 0.0 0.0 0.00 0.00 0.00 96 1019.9
20260831150005 41 104 0.0 0.0 0.00 0.00 0.00 95 1018.5
20260831145921 41 104 0.0 0.0 0.00 0.00 0.00 95 1020.0
20260831145503 40 104 0.0 0.0 0.00 0.00 0.00 95 1018.5
20260831145421 40 104 0.0 0.0 0.00 0.00 0.00 95 1020.0
20260831145008 40 104 0.0 0.0 0.00 0.00 0.00 95 1018.5
20260831144921 40 104 0.0 0.0 0.00 0.00 0.00 95 1019.9
20260831144640 40 104 0.0 0.0 0.00 0.00 0.00 95 1020.0
20260831144504 39 104 0.0 0.0 0.00 0.00 0.00 94 1018.5
20260831144145 39 104 0.0 1.0 0.00 0.00 0.00 95 1020.0
20260831144002 39 104 0.0 1.0 0.00 0.00 0.00 94 1018.5
20260831143505 39 104 0.0 1.0 0.00 0.00 0.00 94 1018.5
20260831143421 39 104 0.0 1.0 0.00 0.00 0.00 95 1020.0
20260831143008 38 104 0.0 0.0 0.00 0.00 0.00 94 1018.5
20260831142920 39 104 0.0 0.0 0.00 0.00 0.00 94 1019.9
20260831142503 38 104 0.0 0.0 0.00 0.00 0.00 94 1018.5
20260831142419 39 104 0.0 0.0 0.00 0.00 0.00 94 1019.8
20260831142004 38 104 0.0 0.0 0.00 0.00 0.00 94 1018.5
20260831141914 38 104 0.0 0.0 0.00 0.00 0.00 94 1019.8
20260831141509 38 104 0.0 0.0 0.00 0.00 0.00 94 1018.4
20260831141408 38 104 0.0 0.0 0.00 0.00 0.00 94 1019.8
20260831141004 38 104 0.0 0.0 0.00 0.00 0.00 94 1018.5
20260831140903 38 104 0.0 0.0 0.00 0.00 0.00 94 1019.8
20260831140505 37 104 0.0 0.0 0.00 0.00 0.00 93 1018.4
20260831140356 38 104 0.0 0.0 0.00 0.00 0.00 94 1019.8
20260831140014 37 104 0.0 1.0 0.00 0.00 0.00 93 1018.4
20260831135857 38 104 0.0 1.0 0.00 0.00 0.00 94 1019.6
20260831135509 37 104 0.0 2.0 0.00 0.00 0.00 93 1018.2
20260831135357 38 104 0.0 2.0 0.00 0.00 0.00 94 1019.6
20260831135121 38 104 0.0 4.0 0.00 0.00 0.00 93 1019.5
20260831135004 37 104 0.0 4.0 0.00 0.00 0.00 93 1018.1
20260831134617 37 103 0.0 4.0 0.00 0.00 0.00 93 1019.3
20260831134508 37 104 0.0 4.0 0.00 0.00 0.00 92 1018.0
20260831134116 37 300 0.0 0.0 0.00 0.00 0.00 93 1019.5
20260831134006 37 300 0.0 0.0 0.00 0.00 0.00 92 1017.9
20260831133511 37 300 0.0 0.0 0.00 0.00 0.00 92 1017.9
20260831133354 37 300 0.0 0.0 0.00 0.00 0.00 93 1019.5
20260831133008 37 300 0.0 0.0 0.00 0.00 0.00 92 1018.0
20260831132853 37 300 0.0 0.0 0.00 0.00 0.00 93 1019.5
20260831132502 37 300 0.0 0.0 0.00 0.00 0.00 92 1018.0
20260831132353 37 300 0.0 0.0 0.00 0.00 0.00 92 1019.5
20260831132006 37 300 0.0 0.0 0.00 0.00 0.00 92 1018.0
20260831131853 37 300 0.0 0.0 0.00 0.00 0.00 92 1019.5
20260831131508 37 300 0.0 0.0 0.00 0.00 0.00 92 1018.0
20260831131351 37 300 0.0 0.0 0.00 0.00 0.00 92 1019.5
20260831131007 37 300 0.0 0.0 0.00 0.00 0.00 92 1018.0
20260831130851 37 300 0.0 0.0 0.00 0.00 0.00 92 1019.6
20260831130506 37 300 0.0 0.0 0.00 0.00 0.00 91 1018.0
20260831130351 37 300 0.0 0.0 0.00 0.00 0.00 92 1019.5
20260831130016 37 300 0.0 0.0 0.00 0.00 0.00 91 1018.0
20260831125854 38 300 0.0 0.0 0.00 0.00 0.00 92 1019.5
20260831125503 37 300 0.0 0.0 0.00 0.00 0.00 91 1018.0
20260831125350 37 300 0.0 0.0 0.00 0.00 0.00 92 1019.5
20260831125008 37 300 0.0 0.0 0.00 0.00 0.00 91 1018.0
20260831124850 38 300 0.0 0.0 0.00 0.00 0.00 91 1019.5
20260831124615 38 300 0.0 0.0 0.00 0.00 0.00 92 1019.5
20260831124536 37 300 0.0 0.0 0.00 0.00 0.00 91 1018.0
20260831124011 37 300 0.0 0.0 0.00 0.00 0.00 91 1018.0
20260831123847 38 300 0.0 0.0 0.00 0.00 0.00 92 1019.5
20260831123503 37 300 0.0 0.0 0.00 0.00 0.00 91 1018.1
20260831123344 38 300 0.0 0.0 0.00 0.00 0.00 92 1019.6
20260831123013 37 300 0.0 0.0 0.00 0.00 0.00 91 1018.1
20260831122838 38 300 0.0 0.0 0.00 0.00 0.00 92 1019.5
20260831122514 37 300 0.0 0.0 0.00 0.00 0.00 91 1018.1
20260831122016 37 300 0.0 0.0 0.00 0.00 0.00 91 1018.0
20260831121826 38 300 0.0 0.0 0.00 0.00 0.00 91 1019.3
20260831121510 37 300 0.0 0.0 0.00 0.00 0.00 91 1018.0
20260831121320 38 300 0.0 0.0 0.00 0.00 0.00 91 1019.3
20260831121037 38 300 0.0 0.0 0.00 0.00 0.00 91 1019.5
20260831121003 37 300 0.0 0.0 0.00 0.00 0.00 91 1018.1
20260831120501 37 300 0.0 0.0 0.00 0.00 0.00 91 1018.2
20260831120308 38 300 0.0 0.0 0.00 0.00 0.00 91 1019.6
20260831120010 37 300 0.0 0.0 0.00 0.00 0.00 91 1018.3
20260831115802 38 300 0.0 0.0 0.00 0.00 0.00 91 1019.6
20260831115505 37 300 0.0 0.0 0.00 0.00 0.00 91 1018.3
20260831115301 38 300 0.0 0.0 0.00 0.00 0.00 91 1019.5
20260831115005 37 300 0.0 0.0 0.00 0.00 0.00 91 1018.2
20260831114801 38 300 0.0 0.0 0.00 0.00 0.00 91 1019.6
20260831114533 37 300 0.0 0.0 0.00 0.00 0.00 91 1018.3
20260831114259 38 300 0.0 0.0 0.00 0.00 0.00 91 1019.6
20260831114007 37 300 0.0 0.0 0.00 0.00 0.00 91 1018.4
20260831113758 38 300 0.0 0.0 0.00 0.00 0.00 91 1019.8
20260831113508 37 300 0.0 0.0 0.00 0.00 0.00 91 1018.5
20260831113258 38 300 0.0 0.0 0.00 0.00 0.00 91 1019.8
20260831113024 38 300 0.0 0.0 0.00 0.00 0.00 90 1018.5
20260831112757 38 300 0.0 0.0 0.00 0.00 0.00 91 1019.9
20260831112504 38 300 0.0 0.0 0.00 0.00 0.00 90 1018.5
20260831112257 38 300 0.0 0.0 0.00 0.00 0.00 90 1019.8
20260831112008 38 300 0.0 0.0 0.00 0.00 0.00 90 1018.4
20260831111757 38 300 0.0 0.0 0.00 0.00 0.00 91 1019.7
20260831111525 38 300 0.0 0.0 0.00 0.00 0.00 90 1018.4
20260831111257 38 300 0.0 0.0 0.00 0.00 0.00 90 1019.8
20260831111015 38 300 0.0 0.0 0.00 0.00 0.00 90 1018.4
20260831111010 38 300 0.0 0.0 0.00 0.00 0.00 91 1019.8
20260831110507 38 300 0.0 0.0 0.00 0.00 0.00 90 1018.5
20260831110252 38 300 0.0 0.0 0.00 0.00 0.00 91 1019.8
20260831110020 38 300 0.0 0.0 0.00 0.00 0.00 90 1018.5
20260831105752 38 300 0.0 0.0 0.00 0.00 0.00 90 1019.8
20260831105515 38 300 0.0 0.0 0.00 0.00 0.00 90 1018.5
20260831105252 38 300 0.0 0.0 0.00 0.00 0.00 90 1019.9
20260831105003 38 300 0.0 0.0 0.00 0.00 0.00 90 1018.5
20260831104753 38 300 0.0 0.0 0.00 0.00 0.00 90 1019.8
20260831104519 38 300 0.0 0.0 0.00 0.00 0.00 89 1018.5
20260831104253 38 300 0.0 0.0 0.00 0.00 0.00 90 1019.8
20260831104006 38 300 0.0 0.0 0.00 0.00 0.00 89 1018.5
20260831103753 38 300 0.0 0.0 0.00 0.00 0.00 89 1019.8
20260831103505 38 300 0.0 0.0 0.00 0.00 0.00 89 1018.5
20260831103250 39 300 0.0 0.0 0.00 0.00 0.00 89 1019.8
20260831103013 38 300 0.0 0.0 0.00 0.00 0.00 89 1018.4
20260831102748 39 300 0.0 0.0 0.00 0.00 0.00 89 1019.7
20260831102507 38 300 0.0 0.0 0.00 0.00 0.00 89 1018.5
20260831102246 39 300 0.0 0.0 0.00 0.00 0.00 89 1019.8
20260831102009 38 300 0.0 0.0 0.00 0.00 0.00 89 1018.5
20260831101742 39 300 0.0 0.0 0.00 0.00 0.00 89 1019.8
20260831101527 38 300 0.0 0.0 0.00 0.00 0.00 89 1018.5
20260831101234 39 300 0.0 0.0 0.00 0.00 0.00 89 1019.8
20260831101006 38 300 0.0 0.0 0.00 0.00 0.00 89 1018.5
20260831100728 39 300 0.0 0.0 0.00 0.00 0.00 89 1019.9
20260831100513 38 300 0.0 0.0 0.00 0.00 0.00 88 1018.5
20260831100222 39 300 0.0 0.0 0.00 0.00 0.00 89 1019.9
20260831100040 39 300 0.0 0.0 0.00 0.00 0.00 88 1018.5
20260831095716 39 300 0.0 0.0 0.00 0.00 0.00 89 1019.9
20260831095506 39 300 0.0 0.0 0.00 0.00 0.00 88 1018.5
20260831095211 39 300 0.0 0.0 0.00 0.00 0.00 88 1019.9
20260831095009 39 300 0.0 0.0 0.00 0.00 0.00 88 1018.4
20260831094704 39 300 0.0 0.0 0.00 0.00 0.00 88 1019.9
20260831094527 39 300 0.0 0.0 0.00 0.00 0.00 88 1018.5
20260831094429 39 300 0.0 0.0 0.00 0.00 0.00 88 1020.0
20260831094015 39 300 0.0 0.0 0.00 0.00 0.00 88 1018.6
20260831093651 39 300 0.0 0.0 0.00 0.00 0.00 88 1020.0
20260831093505 39 300 0.0 0.0 0.00 0.00 0.00 87 1018.6
20260831093147 39 300 0.0 0.0 0.00 0.00 0.00 88 1020.1
20260831093012 39 300 0.0 0.0 0.00 0.00 0.00 87 1018.7
20260831092639 39 300 0.0 0.0 0.00 0.00 0.00 87 1020.0
20260831092509 39 300 0.0 0.0 0.00 0.00 0.00 87 1018.6
20260831092134 39 300 0.0 0.0 0.00 0.00 0.00 87 1020.1
20260831092009 39 300 0.0 0.0 0.00 0.00 0.00 86 1018.7
20260831091628 40 300 0.0 0.0 0.00 0.00 0.00 87 1020.1
20260831091520 39 300 0.0 0.0 0.00 0.00 0.00 87 1018.7
20260831091122 40 300 0.0 0.0 0.00 0.00 0.00 87 1020.3
20260831091014 39 300 0.0 0.0 0.00 0.00 0.00 87 1018.8
20260831090837 40 300 0.0 0.0 0.00 0.00 0.00 87 1020.3
20260831090513 39 300 0.0 0.0 0.00 0.00 0.00 86 1018.7
20260831090110 40 300 0.0 0.0 0.00 0.00 0.00 86 1020.3
20260831090018 39 300 0.0 0.0 0.00 0.00 0.00 86 1018.8
20260831085604 40 300 0.0 0.0 0.00 0.00 0.00 85 1020.3
20260831085513 39 300 0.0 0.0 0.00 0.00 0.00 85 1018.7
20260831085015 40 300 0.0 0.0 0.00 0.00 0.00 85 1018.8
20260831084602 40 300 0.0 0.0 0.00 0.00 0.00 85 1020.1
20260831084534 40 300 0.0 0.0 0.00 0.00 0.00 85 1018.8
20260831084318 40 300 0.0 0.0 0.00 0.00 0.00 86 1020.3
20260831084007 40 300 0.0 0.0 0.00 0.00 0.00 85 1018.8
20260831083558 40 300 0.0 0.0 0.00 0.00 0.00 86 1020.4
20260831083512 40 300 0.0 0.0 0.00 0.00 0.00 85 1018.9
20260831083058 40 300 0.0 0.0 0.00 0.00 0.00 85 1020.4
20260831083042 40 300 0.0 0.0 0.00 0.00 0.00 85 1018.9
20260831082558 40 300 0.0 0.0 0.00 0.00 0.00 85 1020.5
20260831082503 40 300 0.0 0.0 0.00 0.00 0.00 85 1019.0
20260831082056 41 300 0.0 0.0 0.00 0.00 0.00 85 1020.4
20260831082002 40 300 0.0 0.0 0.00 0.00 0.00 85 1018.9
20260831081556 41 300 0.0 0.0 0.00 0.00 0.00 85 1020.4
20260831081505 40 300 0.0 0.0 0.00 0.00 0.00 85 1018.9
20260831081056 41 300 0.0 0.0 0.00 0.00 0.00 85 1020.5
20260831081005 40 300 0.0 0.0 0.00 0.00 0.00 85 1018.8
20260831080554 41 300 0.0 0.0 0.00 0.00 0.00 85 1020.5
20260831080507 40 300 0.0 0.0 0.00 0.00 0.00 85 1018.8
20260831080052 41 300 0.0 0.0 0.00 0.00 0.00 85 1020.4
20260831080004 40 300 0.0 0.0 0.00 0.00 0.00 85 1018.9
20260831075552 41 300 0.0 0.0 0.00 0.00 0.00 84 1020.5
20260831075503 41 300 0.0 0.0 0.00 0.00 0.00 84 1018.9
20260831075052 41 300 0.0 0.0 0.00 0.00 0.00 85 1020.5
20260831075002 41 300 0.0 0.0 0.00 0.00 0.00 84 1019.0
20260831074550 41 300 0.0 0.0 0.00 0.00 0.00 85 1020.6
20260831074504 41 300 0.0 0.0 0.00 0.00 0.00 84 1019.1
20260831074048 41 300 0.0 0.0 0.00 0.00 0.00 84 1020.5
20260831074003 41 300 0.0 0.0 0.00 0.00 0.00 83 1019.1
20260831073548 41 300 0.0 0.0 0.00 0.00 0.00 84 1020.6
20260831073504 41 300 0.0 0.0 0.00 0.00 0.00 83 1019.0
20260831073048 42 300 0.0 0.0 0.00 0.00 0.00 84 1020.5
20260831073005 41 300 0.0 0.0 0.00 0.00 0.00 84 1019.0
20260831072547 42 300 0.0 0.0 0.00 0.00 0.00 84 1020.5
20260831072503 41 300 0.0 0.0 0.00 0.00 0.00 83 1019.0
20260831072312 42 300 0.0 0.0 0.00 0.00 0.00 84 1020.6
20260831072002 41 300 0.0 0.0 0.00 0.00 0.00 83 1019.0
20260831071551 42 300 0.0 0.0 0.00 0.00 0.00 84 1020.5
20260831071523 42 300 0.0 0.0 0.00 0.00 0.00 83 1019.1
20260831071307 42 300 0.0 0.0 0.00 0.00 0.00 83 1020.6
20260831071006 42 300 0.0 0.0 0.00 0.00 0.00 83 1019.1
20260831070548 42 300 0.0 0.0 0.00 0.00 0.00 83 1020.7
20260831070504 42 300 0.0 0.0 0.00 0.00 0.00 83 1019.1
20260831070048 42 300 0.0 0.0 0.00 0.00 0.00 83 1020.7
20260831070020 42 300 0.0 0.0 0.00 0.00 0.00 83 1019.1
20260831065546 42 300 0.0 0.0 0.00 0.00 0.00 83 1020.6
20260831065508 42 300 0.0 0.0 0.00 0.00 0.00 83 1019.1
20260831065047 43 300 0.0 0.0 0.00 0.00 0.00 83 1020.7
20260831065012 42 300 0.0 0.0 0.00 0.00 0.00 82 1019.1
20260831064547 43 300 0.0 0.0 0.00 0.00 0.00 82 1020.7
20260831064506 42 300 0.0 0.0 0.00 0.00 0.00 82 1019.2
20260831064045 43 300 0.0 0.0 0.00 0.00 0.00 83 1020.7
20260831064006 42 300 0.0 0.0 0.00 0.00 0.00 82 1019.2
20260831063809 43 300 0.0 0.0 0.00 0.00 0.00 82 1020.7
20260831063508 43 300 0.0 0.0 0.00 0.00 0.00 82 1019.2
20260831063042 43 300 0.0 0.0 0.00 0.00 0.00 82 1020.9
20260831063002 43 300 0.0 0.0 0.00 0.00 0.00 81 1019.3
20260831062543 43 300 0.0 0.0 0.00 0.00 0.00 81 1020.8
20260831062503 43 300 0.0 0.0 0.00 0.00 0.00 81 1019.2
20260831062041 43 300 0.0 0.0 0.00 0.00 0.00 81 1020.8
20260831062004 43 300 0.0 0.0 0.00 0.00 0.00 80 1019.3
20260831061810 44 300 0.0 0.0 0.00 0.00 0.00 81 1020.8
20260831061506 43 300 0.0 0.0 0.00 0.00 0.00 80 1019.2
20260831061034 44 300 0.0 0.0 0.00 0.00 0.00 81 1020.9
20260831061004 43 300 0.0 0.0 0.00 0.00 0.00 80 1019.3
20260831060528 44 300 0.0 0.0 0.00 0.00 0.00 80 1020.8
20260831060505 43 300 0.0 0.0 0.00 0.00 0.00 80 1019.3
20260831060022 44 300 0.0 0.0 0.00 0.00 0.00 80 1020.8
20260831060012 44 300 0.0 0.0 0.00 0.00 0.00 80 1019.3
20260831055516 44 300 0.0 0.0 0.00 0.00 0.00 80 1020.8
20260831055503 44 300 0.0 0.0 0.00 0.00 0.00 79 1019.3
20260831055010 44 300 0.0 0.0 0.00 0.00 0.00 80 1020.7
20260831055005 44 300 0.0 0.0 0.00 0.00 0.00 80 1019.2
20260831054522 44 300 0.0 0.0 0.00 0.00 0.00 79 1019.2
20260831054503 44 300 0.0 0.0 0.00 0.00 0.00 80 1020.8
20260831054012 44 300 0.0 0.0 0.00 0.00 0.00 78 1019.2
20260831053958 45 300 0.0 0.0 0.00 0.00 0.00 79 1020.8
20260831053723 45 300 0.0 0.0 0.00 0.00 0.00 78 1020.8
20260831053502 45 300 0.0 0.0 0.00 0.00 0.00 78 1019.2
20260831053015 45 300 0.0 0.0 0.00 0.00 0.00 77 1019.1
20260831052946 45 300 0.0 0.0 0.00 0.00 0.00 78 1020.8
20260831052511 45 300 0.0 0.0 0.00 0.00 0.00 77 1019.2
20260831052440 46 300 0.0 0.0 0.00 0.00 0.00 78 1020.8
20260831052011 45 300 0.0 0.0 0.00 0.00 0.00 77 1019.2
20260831051933 46 300 0.0 0.0 0.00 0.00 0.00 77 1020.8
20260831051510 45 300 0.0 0.0 0.00 0.00 0.00 76 1019.3
20260831051428 46 300 0.0 0.0 0.00 0.00 0.00 77 1020.9
20260831051003 46 300 0.0 0.0 0.00 0.00 0.00 76 1019.3
20260831050922 46 300 0.0 0.0 0.00 0.00 0.00 77 1020.9
20260831050503 46 300 0.0 0.0 0.00 0.00 0.00 76 1019.3
20260831050416 46 300 0.0 0.0 0.00 0.00 0.00 76 1020.8
20260831050011 46 300 0.0 0.0 0.00 0.00 0.00 75 1019.3
20260831045910 47 300 0.0 0.0 0.00 0.00 0.00 75 1020.8
20260831045506 46 300 0.0 0.0 0.00 0.00 0.00 75 1019.1
20260831045404 47 300 0.0 0.0 0.00 0.00 0.00 76 1020.7
20260831045008 47 300 0.0 0.0 0.00 0.00 0.00 75 1019.2
20260831044858 47 300 0.0 0.0 0.00 0.00 0.00 76 1020.6
20260831044515 47 300 0.0 0.0 0.00 0.00 0.00 74 1019.2
20260831044352 48 300 0.0 0.0 0.00 0.00 0.00 74 1020.6
20260831044006 47 300 0.0 0.0 0.00 0.00 0.00 74 1019.2
20260831043846 48 300 0.0 0.0 0.00 0.00 0.00 74 1020.6
20260831043509 48 300 0.0 0.0 0.00 0.00 0.00 73 1019.2
20260831043340 48 300 0.0 0.0 0.00 0.00 0.00 73 1020.6
20260831043023 48 300 0.0 0.0 0.00 0.00 0.00 73 1019.1
20260831042834 49 300 0.0 0.0 0.00 0.00 0.00 72 1020.4
20260831042511 48 300 0.0 0.0 0.00 0.00 0.00 72 1019.1
20260831042328 49 300 0.0 0.0 0.00 0.00 0.00 73 1020.5
20260831042043 49 300 0.0 0.0 0.00 0.00 0.00 72 1020.5
20260831042008 49 300 0.0 0.0 0.00 0.00 0.00 72 1019.1
20260831041524 49 300 0.0 0.0 0.00 0.00 0.00 71 1019.2
20260831041316 50 300 0.0 0.0 0.00 0.00 0.00 71 1020.5
20260831041014 49 300 0.0 0.0 0.00 0.00 0.00 71 1019.2
20260831040810 50 300 0.0 0.0 0.00 0.00 0.00 71 1020.5
20260831040530 50 300 0.0 0.0 0.00 0.00 0.00 70 1020.5
20260831040506 50 300 0.0 0.0 0.00 0.00 0.00 71 1019.1
20260831040024 50 300 0.0 0.0 0.00 0.00 0.00 70 1019.1
20260831035803 50 300 0.0 0.0 0.00 0.00 0.00 70 1020.4
20260831035513 50 300 0.0 0.0 0.00 0.00 0.00 69 1019.1
20260831035306 51 300 0.0 0.0 0.00 0.00 0.00 70 1020.4
20260831035004 50 300 0.0 0.0 0.00 0.00 0.00 69 1019.1
20260831034803 51 300 0.0 0.0 0.00 0.00 0.00 70 1020.4
20260831034510 50 300 0.0 0.0 0.00 0.00 0.00 70 1019.1
20260831034302 51 300 0.0 0.0 0.00 0.00 0.00 70 1020.3
20260831034007 51 300 0.0 0.0 0.00 0.00 0.00 69 1019.1
20260831033803 51 300 0.0 0.0 0.00 0.00 0.00 70 1020.4
20260831033507 51 300 0.0 0.0 0.00 0.00 0.00 68 1019.1
20260831033302 51 300 0.0 0.0 0.00 0.00 0.00 68 1020.3
20260831033012 51 300 0.0 0.0 0.00 0.00 0.00 68 1019.1
20260831032801 52 300 0.0 0.0 0.00 0.00 0.00 69 1020.3
20260831032507 51 300 0.0 0.0 0.00 0.00 0.00 70 1018.9
20260831032258 52 300 0.0 0.0 0.00 0.00 0.00 69 1020.3
20260831032010 52 299 0.0 0.0 0.00 0.00 0.00 69 1019.0
20260831031758 52 298 0.0 0.0 0.00 0.00 0.00 69 1020.3
20260831031528 52 297 0.0 0.0 0.00 0.00 0.00 68 1018.9
20260831031258 52 296 0.0 0.0 0.00 0.00 0.00 68 1020.1
20260831031008 52 288 0.0 0.0 0.00 0.00 0.00 68 1018.8
20260831030758 53 284 0.0 0.0 0.00 0.00 0.00 70 1020.1
20260831030512 52 286 0.0 0.0 0.00 0.00 0.00 69 1018.8
20260831030259 53 286 0.0 0.0 0.00 0.00 0.00 68 1020.3
20260831030030 52 286 0.0 0.0 0.00 0.00 0.00 68 1018.9
20260831030017 53 286 0.0 0.0 0.00 0.00 0.00 68 1020.3
20260831025515 52 285 0.0 0.0 0.00 0.00 0.00 67 1018.9
20260831025256 53 284 0.0 0.0 0.00 0.00 0.00 68 1020.1
20260831025009 53 285 0.0 0.0 0.00 0.00 0.00 67 1018.8
20260831024754 53 286 0.0 0.0 0.00 0.00 0.00 67 1020.1
20260831024533 53 288 0.0 0.0 0.00 0.00 0.00 66 1018.8
20260831024015 54 287 0.0 0.0 0.00 0.00 0.00 65 1018.7
20260831023752 55 287 0.0 0.0 0.00 0.00 0.00 65 1020.0
20260831023505 55 286 0.0 0.0 0.00 0.00 0.00 64 1018.7
20260831023252 56 284 0.0 0.0 0.00 0.00 0.00 63 1020.0
20260831023013 56 281 0.0 0.0 0.00 0.00 0.00 63 1018.7
20260831022751 56 281 0.0 0.0 0.00 0.00 0.00 63 1020.0
20260831022506 56 283 0.0 0.0 0.00 0.00 0.00 63 1018.7
20260831022240 57 288 0.0 0.0 0.00 0.00 0.00 60 1020.0
20260831022006 57 288 0.0 0.0 0.00 0.00 0.00 60 1018.6
20260831021734 57 287 0.0 0.0 0.00 0.00 0.00 61 1019.9
20260831021517 57 287 0.0 0.0 0.00 0.00 0.00 62 1018.6
20260831021228 58 291 0.0 0.0 0.00 0.00 0.00 60 1020.0
20260831021008 57 292 0.0 0.0 0.00 0.00 0.00 60 1018.7
20260831020722 58 292 0.0 0.0 0.00 0.00 0.00 62 1020.0
20260831020512 57 292 0.0 0.0 0.00 0.00 0.00 60 1018.7
20260831020216 58 292 0.0 0.0 0.00 0.00 0.00 58 1020.0
20260831020011 57 294 0.0 0.0 0.00 0.00 0.00 57 1018.7
20260831015710 58 295 0.0 0.0 0.00 0.00 0.00 58 1020.0
20260831015511 58 296 0.0 0.0 0.00 0.00 0.00 54 1018.6
20260831015432 58 296 0.0 0.0 0.00 0.00 0.00 56 1019.9
20260831015016 58 296 0.0 0.0 0.00 0.00 0.00 55 1018.7
20260831014706 58 296 0.0 0.0 0.00 0.00 0.00 54 1020.0
20260831014526 58 296 0.0 0.0 0.00 0.00 0.00 52 1018.7
20260831014206 58 296 0.0 2.0 0.00 0.00 0.00 52 1020.0
20260831014007 58 296 0.0 2.0 0.00 0.00 0.00 52 1018.7
20260831013706 58 296 0.0 2.0 0.00 0.00 0.00 52 1020.0
20260831013514 58 296 0.0 2.0 0.00 0.00 0.00 52 1018.6
20260831013030 58 296 0.0 1.0 0.00 0.00 0.00 52 1018.7
20260831012706 58 295 0.0 1.0 0.00 0.00 0.00 53 1020.0
20260831012516 58 295 0.0 2.0 0.00 0.00 0.00 52 1018.7
20260831012427 58 296 0.0 2.0 0.00 0.00 0.00 54 1020.0
20260831012017 58 296 0.0 2.0 0.00 0.00 0.00 53 1018.7
20260831011921 58 295 0.0 2.0 0.00 0.00 0.00 53 1020.1
20260831011534 58 295 0.0 2.0 0.00 0.00 0.00 53 1018.8
20260831011204 58 294 0.0 3.0 0.00 0.00 0.00 53 1020.1
20260831011008 58 294 0.0 3.0 0.00 0.00 0.00 52 1018.8
20260831010702 59 294 0.0 3.0 0.00 0.00 0.00 52 1020.1
20260831010509 58 294 1.0 3.0 0.00 0.00 0.00 52 1018.7
20260831010423 59 279 1.0 3.0 0.00 0.00 0.00 53 1020.1
20260831010030 58 280 0.0 3.0 0.00 0.00 0.00 52 1018.8
20260831005925 59 280 1.0 3.0 0.00 0.00 0.00 52 1020.1
20260831005502 58 280 1.0 3.0 0.00 0.00 0.00 52 1018.8
20260831005200 59 267 1.0 3.0 0.00 0.00 0.00 52 1020.0
20260831005001 59 238 1.0 3.0 0.00 0.00 0.00 50 1018.7
20260831004701 59 238 0.0 3.0 0.00 0.00 0.00 51 1020.0
20260831004504 59 236 0.0 4.0 0.00 0.00 0.00 50 1018.6
20260831004201 59 236 1.0 4.0 0.00 0.00 0.00 52 1019.9
20260831004002 59 236 0.0 4.0 0.00 0.00 0.00 51 1018.5
20260831003658 59 236 1.0 4.0 0.00 0.00 0.00 51 1019.9
20260831003503 59 229 0.0 3.0 0.00 0.00 0.00 51 1018.5